Location: ????????
(54.6123°N, 39.2099°E)
Time: 02:24:45
(UTC+00:00)

NOSS 0 Rocket - Pass Details

Date: 19 May 2025
Orbit: 933 x 955 km, 70.0° (Epoch: 14 June)

Event Time Altitude Azimuth Distance (km) Brightness Sun altitude
Rises 23:11:22 0° 323° (NW) 3,644 7.4 -11.7°
Reaches altitude 10° 23:13:59 10° 319° (NW) 2,694 6.6 -11.5°
Maximum altitude 23:19:59 50° 246° (WSW) 1,198 4.2 -11.1°
Drops below altitude 10° 23:25:56 10° 173° (S) 2,670 5.8 -10.7°
Enters shadow 23:27:24 - 170° (S) 3,198 6.3 -10.6°
